Regional Weather Roundup
Issued by NWS Charleston, SC

Current Version | Previous Version | Graphics & Text | Print | Product List | Glossary On
Versions: 1 2 3 4 5 6 7 8 9 10 11 12 13 14 15 16 17 18 19 20 21 22 23 24 25 26 27 28 29 30 31 32 33 34 35 36 37 38 39 40 41 42 43 44 45 46 47 48 49 50
000 ASUS42 KCHS 261427 RWRCHS REGIONAL WEATHER ROUNDUP NATIONAL WEATHER SERVICE CHARLESTON SC 1000 AM EDT WED JUL 26 2017 NOTE: "FAIR" INDICATES FEW OR NO CLOUDS BELOW 12,000 FEET WITH NO SIGNIFICANT WEATHER AND/OR OBSTRUCTIONS TO VISIBILITY. NOT ALL STATIONS ARE QUALITY CONTROLLED. USE DATA WITH CAUTION... ESPECIALLY DEWPOINT OBSERVATIONS. SCZ027-030-031-034>040-042>050-261500- ...SOUTHEAST SOUTH CAROLINA... CITY SKY/WX TMP DP RH WIND PRES REMARKS N CHARLESTON CLOUDY 79 74 84 CALM 30.10S WATERFRONT PRK N/A 80 75 84 VRB2 30.09S JOHNS ISLAND PTSUNNY 81 77 89 S13 30.11S PINOPOLIS N/A 81 75 83 CALM 30.04F MONCKS CORNER FAIR 81 73 78 E5 30.11R SUMMERVILLE FAIR 81 73 78 CALM 30.12R BEAUFORT MCAS CLOUDY 80 77 90 SE6 30.13R BEAUFORT ARPT TSTM 73 72 94 SE8 30.13R HILTON HEAD IS TSTM 73 73 100 S6 30.12S WALTERBORO NOT AVBL ALLENDALE NOT AVBL ...SOUTHERN MIDLANDS AND PEE DEE... CITY SKY/WX TMP DP RH WIND PRES REMARKS GEORGETOWN TSTM 77 73 88 SE13G25 30.12R KINGSTREE CLOUDY 79 77 94 E6 30.11F ORANGEBURG MOSUNNY 81 73 76 E7 30.12S BARNWELL FAIR 86 75 70 CALM 30.11F HX 95 AIKEN FAIR 81 72 74 E6 30.16S MANNING CLOUDY 79 73 83 NE3 30.12S COLUMBIA CLOUDY 82 74 76 E12 30.12S SUMTER CLOUDY 79 75 89 E8 30.11F FOG FLORENCE PTSUNNY 81 76 84 E8 30.13F MYRTLE BEACH PTSUNNY 82 75 78 E12 30.12F N MYRTLE BEACH CLOUDY 80 74 81 SE7 30.12S $$ GAZ063-065-086>088-099>101-113>116-118-119-134>141-150-261500- ...SOUTHEAST GEORGIA... CITY SKY/WX TMP DP RH WIND PRES REMARKS SAVANNAH ARPT CLOUDY 78 73 84 CALM 30.11S HUNTER AAF CLOUDY 77 75 93 N3 30.08S FORT STEWART PTSUNNY 78 73 84 N3 30.09F STATESBORO RAIN 77 77 100 N3 30.12S SYLVANIA CLOUDY 78 76 94 CALM 30.13S CLAXTON FAIR 82 74 77 CALM 30.11F ...CSRA...CENTRAL AND FAR SOUTHEAST GEORGIA... CITY SKY/WX TMP DP RH WIND PRES REMARKS THOMSON CLOUDY 79 73 82 CALM 30.17F AUGUSTA-BUSH CLOUDY 82 75 79 CALM 30.11F AUGUSTA-DANIEL CLOUDY 83 71 67 N7 30.13S SWAINSBORO FAIR 79 73 83 CALM 30.13F VIDALIA CLOUDY 79 73 83 N5 30.12S EASTMAN CLOUDY 77 77 98 E3 30.15S HAZLEHURST CLOUDY 81 78 90 CALM 30.11S ALMA CLOUDY 81 74 79 VRB3 30.11S WAYCROSS CLOUDY 82 81 98 SW5 30.10F HX 95 JESUP NOT AVBL BAXLEY CLOUDY 79 79 100 N3 30.11S BRUNSWICK CLOUDY 79 77 94 NW3 30.11S SAINT SIMONS CLOUDY 81 76 84 VRB5 30.09F $$ SCZ027-028-034-036>038-045-046-048>050-GAZ119-141-261500- ...LAKE AND SUPPLEMENTAL COASTAL OBSERVATIONS... STATION/POSITION TIME TEMP WIND PRES WAVE SWELL AIR SEA DIR/SP/G HT/PER HT/PER/DIR (UTC) (F) (DEG/KT/KT) (MB) (FT/S) (FT/S/D) WINYAH BAY 1345 78 70/ 17 1019.0S LAKE MURRAY 1420 78 80/ 6/ 12 1019.3 ACE BASIN NERRS 1330 79 CALM 1020.0S FORT PULASKI 1400 79 85 30/ 3/ 4 1019.9 SAPELO ISLAND 1400 79 CALM 1019.0 $$ ANZ835-935-AMZ111-154-330-350-352-354-370-450-454-472-261500- ...C-MAN AND BUOY OBSERVATIONS... STATION/POSITION TIME TEMP WIND PRES WAVE SWELL AIR SEA DIR/SP/G HT/PER HT/PER/DIR (UTC) (F) (DEG/KT/KT) (MB) (FT/S) (FT/S/D) BUOY 41004 1410 80 83 200/ 14/ 17 1018.5 BUOY 41008 1350 80 81 250/ 8/ 8 1018.8F 2/ 8 2/ 90/ 8 FOLLY BEACH CMAN 1400 81 170/ 5/ 8 1020.0F CAPERS NEARSHORE 1408 80 84 CALM / 2 1018.9F FRIPP NEARSHORE 1408 74 83 160/ 14/ 17 1020.1R STATION/POSITION TIME TEMP WIND PRES WAVE SWELL AIR SEA DIR/SP/G HT/PER HT/PER/DIR (UTC) (F) (DEG/KT/KT) (MB) (FT/S) (FT/S/D) 5E ST. MARYS GA 1400 79 N/A 2/11 FRYING PAN BUOY 1410 80 82 70/ 6/ 8 1019.0 BUOY 41025 1350 81 83 50/ 14/ 16 1020.2R 3/10 2/110/10 CAPE LOOKOUT NC 1400 78 40/ 16/ 17 1020.3R BUOY 41002 1350 82 83 170/ 4/ 6 1019.2F 3/10 3/ 80/10 BUOY 41010 1410 85 84 210/ 6/ 8 1019.8 ST AUGUSTINE FL 1400 84 74 250/ 6/ 8 1019.9R $$

USA.gov is the U.S. government's official web portal to all federal, state and local government web resources and services.